Change the Weather History Date:

Tuesday, December 3, 2013

  Actual Average Record
Temperature  
Mean Temperature 12 °F 27 °F  
Max Temperature 21 °F 37 °F 51 °F (2007)
Min Temperature 2 °F 16 °F 2 °F (2009)
Degree Days  
Heating Degree Days 53 38  
Month to date heating degree days 109 114  
Since 1 July heating degree days 1817 1948  
Cooling Degree Days 0 0  
Month to date cooling degree days 0 0  
Year to date cooling degree days 709 492  
Moisture  
Dew Point 3 °F    
Average Humidity 83    
Maximum Humidity 92    
Minimum Humidity 73    
Precipitation  
Precipitation 0.04 in 0.02 in 0.05 in (2002)
Month to date precipitation 0.18 0.06  
Year to date precipitation 10.31 13.11  
Sea Level Pressure  
Sea Level Pressure 29.81 in    
Wind  
Wind Speed 30 mph (NNW)    
Max Wind Speed 43 mph    
Max Gust Speed 54 mph    
Visibility 2 miles    
Events Fog , Snow    
T = Trace of Precipitation, MM = Missing Value Source: NWS Daily Summary

Daily Weather History Graph

Daily Weather History Graph

Search for Another Location

Airport or City:

Trip Planner

Search our weather history database for the weather conditions in past years. The results will help you decide how hot, cold, wet, or windy it might be!

Date:

Astronomy

Dec. 03, 2013 Rise Set
Actual Time 7:25 AM MST 4:28 PM MST
Civil Twilight 6:52 AM MST 5:00 PM MST
Nautical Twilight 6:16 AM MST 5:37 PM MST
Astronomical Twilight 5:41 AM MST 6:12 PM MST
Moon 7:56 AM MST (12/3) 5:35 PM MST (12/3)
Length of Visible Light 10h 08m
Length of Day
9h 02m
New Moon, 1% of the Moon is Illuminated
Dec 3
New Moon
Dec 9
First Quarter
Dec 17
Full
Dec 25
Last Quarter
Jan 1
New

Hourly Weather History & Observations

Time (MST) Temp. Windchill Dew Point Humidity Pressure Visibility Wind Dir Wind Speed Gust Speed Precip Events Conditions
12:03 AM 21.0 °F 2.4 °F 18.0 °F 88% 29.54 in 0.2 mi NNW 31.1 mph 41.4 mph 0.00 in Fog , Snow Snow
12:53 AM 18.0 °F -2.8 °F 15.1 °F 88% 29.62 in 0.2 mi NNW 35.7 mph 44.9 mph 0.00 in Fog , Snow Light Freezing Fog
1:13 AM 18.0 °F -2.3 °F 15.1 °F 88% 29.55 in 0.2 mi NNW 33.4 mph 44.9 mph 0.01 in Fog , Snow Light Freezing Fog
1:50 AM 15.8 °F -5.8 °F 12.2 °F 86% 29.58 in 0.2 mi NNW 35.7 mph 48.3 mph 0.01 in Fog , Snow Snow
1:53 AM 16.0 °F -5.3 °F 12.9 °F 88% 29.65 in 0.2 mi NNW 34.5 mph 47.2 mph 0.01 in Fog , Snow Snow
2:35 AM 15.1 °F -6.5 °F 12.0 °F 88% 29.60 in 0.2 mi NNW 34.5 mph 44.9 mph 0.01 in Fog , Snow Snow
2:53 AM 15.1 °F -6.5 °F 10.9 °F 84% 29.68 in 0.2 mi NNW 34.5 mph 42.6 mph 0.02 in Fog , Snow Heavy Snow
3:19 AM 14.0 °F -7.1 °F 10.9 °F 88% 29.61 in 0.2 mi NNW 31.1 mph 40.3 mph 0.00 in Fog , Snow Snow
3:39 AM 14.0 °F -7.4 °F 10.9 °F 88% 29.62 in 0.2 mi NNW 32.2 mph 44.9 mph 0.00 in Fog , Snow Snow
3:50 AM 14.0 °F -6.8 °F 10.4 °F 86% 29.62 in 0.5 mi NNW 29.9 mph 41.4 mph 0.00 in Fog , Snow Snow
3:53 AM 14.0 °F -7.4 °F 10.0 °F 84% 29.71 in 0.5 mi NNW 32.2 mph 39.1 mph 0.00 in Fog , Snow Light Snow
4:24 AM 12.9 °F -8.9 °F 9.0 °F 84% 29.62 in 0.5 mi NNW 32.2 mph 47.2 mph 0.01 in Fog , Snow Light Snow
4:53 AM 12.0 °F -11.0 °F 9.0 °F 88% 29.75 in 0.5 mi NNW 35.7 mph 44.9 mph 0.01 in Fog , Snow Light Snow
5:40 AM 10.9 °F -12.5 °F 7.0 °F 84% 29.63 in 0.5 mi NNW 35.7 mph 47.2 mph 0.00 in Fog , Snow Light Snow
5:53 AM 10.9 °F -12.2 °F 7.0 °F 84% 29.76 in 0.5 mi NNW 34.5 mph 46.0 mph 0.00 in Fog , Snow Light Snow
6:00 AM 10.9 °F -11.6 °F 7.0 °F 84% 29.64 in 0.5 mi NNW 32.2 mph 46.0 mph 0.00 in Fog , Snow Light Snow
6:17 AM 10.0 °F -12.8 °F 7.0 °F 87% 29.65 in 0.8 mi North 32.2 mph 40.3 mph 0.00 in Snow Light Snow
6:53 AM 10.0 °F -14.3 °F 6.1 °F 84% 29.79 in 0.5 mi North 38.0 mph 46.0 mph 0.00 in Fog , Snow Light Snow
7:53 AM 9.0 °F -14.6 °F 5.0 °F 84% 29.82 in 0.2 mi NNW 33.4 mph 46.0 mph 0.00 in Fog , Snow Light Snow
8:53 AM 9.0 °F -14.0 °F 6.1 °F 88% 29.87 in 0.2 mi NNW 31.1 mph 42.6 mph 0.00 in Fog , Snow Light Snow
9:34 AM 10.0 °F -13.7 °F 6.1 °F 84% 29.73 in 0.2 mi North 35.7 mph 46.0 mph 0.00 in Fog , Snow Light Snow
9:53 AM 9.0 °F -15.2 °F 3.9 °F 80% 29.88 in 0.2 mi North 35.7 mph 46.0 mph 0.00 in Snow Heavy Snow
10:49 AM 8.6 °F -13.8 °F 5.0 °F 85% 29.78 in 1.2 mi NNW 28.8 mph 38.0 mph 0.00 in Snow Light Snow
10:53 AM 9.0 °F -13.7 °F 3.9 °F 80% 29.94 in 1.2 mi NNW 29.9 mph 38.0 mph 0.00 in Snow Light Snow
10:59 AM 9.0 °F -13.3 °F 3.9 °F 80% 29.78 in 0.8 mi NNW 28.8 mph 39.1 mph 0.00 in Snow Light Snow
11:41 AM 9.0 °F -13.7 °F 3.9 °F 80% 29.77 in 1.0 mi NNW 29.9 mph 39.1 mph 0.00 in Snow Light Snow
11:53 AM 8.1 °F -14.5 °F 3.0 °F 80% 29.95 in 0.8 mi NNW 28.8 mph 40.3 mph 0.00 in Snow Light Snow
11:57 AM 9.0 °F -13.3 °F 3.9 °F 80% 29.77 in 1.2 mi NNW 28.8 mph 40.3 mph 0.00 in   Overcast
12:08 PM 9.0 °F -12.2 °F 3.0 °F 77% 29.76 in 3.0 mi NNW 25.3 mph 38.0 mph 0.00 in   Overcast
12:17 PM 9.0 °F -13.7 °F 3.0 °F 77% 29.75 in 2.0 mi NNW 29.9 mph 39.1 mph 0.00 in   Overcast
12:24 PM 9.0 °F -14.0 °F 3.0 °F 77% 29.76 in 1.0 mi NNW 31.1 mph 43.7 mph 0.00 in Snow Light Snow
12:33 PM 8.1 °F -14.9 °F 3.0 °F 80% 29.74 in 0.8 mi NNW 29.9 mph 43.7 mph 0.00 in Snow Light Snow
12:53 PM 8.1 °F -14.9 °F 1.9 °F 76% 29.94 in 0.5 mi NNW 29.9 mph 43.7 mph 0.00 in Snow Snow
1:28 PM 8.1 °F -14.5 °F 3.0 °F 80% 29.75 in 0.5 mi North 28.8 mph 40.3 mph 0.00 in Snow Snow
1:41 PM 8.1 °F -13.8 °F 3.0 °F 80% 29.75 in 0.2 mi NNW 26.5 mph 41.4 mph 0.00 in Snow Heavy Snow
1:53 PM 8.1 °F -14.5 °F 3.0 °F 80% 29.94 in 0.2 mi NNW 28.8 mph 43.7 mph 0.00 in Snow Heavy Snow
2:01 PM 7.0 °F -16.3 °F 1.9 °F 80% 29.75 in 0.2 mi NNW 29.9 mph 39.1 mph 0.00 in Snow Heavy Snow
2:14 PM 7.0 °F -17.0 °F 1.9 °F 80% 29.76 in 0.2 mi NNW 32.2 mph 42.6 mph 0.00 in Snow Heavy Snow
2:32 PM 7.0 °F -15.6 °F 1.0 °F 77% 29.78 in 1.0 mi NNW 27.6 mph 38.0 mph 0.00 in   Overcast
2:42 PM 7.0 °F -16.3 °F 1.0 °F 77% 29.79 in 1.2 mi NNW 29.9 mph 39.1 mph 0.00 in Snow Blowing Snow
2:53 PM 7.0 °F -14.9 °F 1.0 °F 77% 29.99 in 2.5 mi NNW 25.3 mph 38.0 mph 0.00 in   Overcast
3:10 PM 6.1 °F -16.5 °F 1.0 °F 80% 29.79 in 1.5 mi NNW 26.5 mph 39.1 mph 0.00 in   Overcast
3:16 PM 6.1 °F -17.9 °F 1.0 °F 80% 29.76 in 0.8 mi North 31.1 mph 43.7 mph 0.00 in Snow Light Snow
3:29 PM 6.1 °F -17.6 °F -0.0 °F 76% 29.80 in 1.2 mi NNW 29.9 mph 38.0 mph 0.00 in   Overcast
3:53 PM 5.0 °F -19.0 °F -0.0 °F 80% 30.02 in 1.8 mi NNW 29.9 mph 39.1 mph 0.00 in Snow Blowing Snow
4:07 PM 5.0 °F -19.7 °F -0.9 °F 76% 29.80 in 1.0 mi NNW 32.2 mph 40.3 mph 0.00 in Snow Blowing Snow
4:11 PM 5.0 °F -18.7 °F -0.9 °F 76% 29.79 in 1.2 mi NNW 28.8 mph 36.8 mph 0.00 in Snow Blowing Snow
4:26 PM 3.9 °F -20.1 °F -0.9 °F 80% 29.79 in 0.8 mi NNW 28.8 mph 36.8 mph 0.00 in Snow Light Snow
4:40 PM 3.9 °F -19.8 °F -0.9 °F 80% 29.82 in 1.0 mi NNW 27.6 mph 38.0 mph 0.00 in Snow Light Snow
4:53 PM 3.9 °F -20.5 °F -0.9 °F 80% 30.05 in 2.5 mi NNW 29.9 mph 38.0 mph 0.00 in   Overcast
5:03 PM 3.9 °F -19.8 °F -0.9 °F 80% 29.81 in 1.2 mi NNW 27.6 mph 39.1 mph 0.00 in Snow Light Snow
5:11 PM 3.9 °F -19.4 °F -2.0 °F 76% 29.81 in 1.8 mi NNW 26.5 mph 38.0 mph 0.00 in Snow Blowing Snow
5:17 PM 3.9 °F -20.5 °F -2.0 °F 76% 29.82 in 3.0 mi NNW 29.9 mph 39.1 mph 0.00 in Snow Blowing Snow
5:26 PM 3.9 °F -19.8 °F -2.0 °F 76% 29.83 in 4.0 mi NNW 27.6 mph 39.1 mph 0.00 in   Scattered Clouds
5:53 PM 3.0 °F -18.8 °F -2.0 °F 80% 30.08 in 10.0 mi NNW 21.9 mph 28.8 mph 0.00 in   Scattered Clouds
6:30 PM 3.0 °F -22.1 °F -2.9 °F 76% 29.83 in 2.5 mi NNW 31.1 mph 38.0 mph N/A Snow Blowing Snow
6:46 PM 3.0 °F -22.1 °F -2.9 °F 76% 29.83 in 3.0 mi NNW 31.1 mph 39.1 mph 0.00 in Snow Blowing Snow
6:53 PM 1.9 °F -21.6 °F -2.9 °F 80% 30.08 in 4.0 mi NNW 25.3 mph 39.1 mph 0.00 in   Haze
7:21 PM 3.0 °F -22.1 °F -2.9 °F 76% 29.85 in 2.5 mi NNW 31.1 mph 42.6 mph 0.00 in Snow Blowing Snow
7:30 PM 1.9 °F -23.2 °F -2.9 °F 80% 29.85 in 3.0 mi NNW 29.9 mph 40.3 mph 0.00 in Snow Blowing Snow
7:42 PM 1.9 °F -23.2 °F -2.9 °F 80% 29.84 in 3.0 mi NNW 29.9 mph 39.1 mph 0.00 in   Overcast
7:50 PM 1.4 °F -25.0 °F -2.2 °F 85% 29.85 in 2.0 mi NNW 33.4 mph 39.1 mph 0.00 in Snow Blowing Snow
7:53 PM 3.0 °F -21.7 °F -2.9 °F 76% 30.09 in 2.0 mi NNW 29.9 mph 39.1 mph 0.00 in Snow Blowing Snow
8:06 PM 3.0 °F -21.7 °F -2.9 °F 76% 29.85 in 2.5 mi NNW 29.9 mph 40.3 mph 0.00 in   Overcast
8:18 PM 3.0 °F -22.4 °F -2.9 °F 76% 29.85 in 2.0 mi NNW 32.2 mph 43.7 mph 0.00 in Snow Blowing Snow
8:30 PM 3.0 °F -22.4 °F -2.9 °F 76% 29.86 in 2.5 mi NNW 32.2 mph 41.4 mph 0.00 in   Overcast
8:53 PM 3.0 °F -21.0 °F -2.0 °F 80% 30.10 in 1.2 mi NNW 27.6 mph 39.1 mph 0.00 in Snow Light Snow
9:03 PM 3.0 °F -20.6 °F -2.0 °F 80% 29.85 in 3.0 mi NNW 26.5 mph 38.0 mph 0.00 in   Overcast
9:22 PM 3.0 °F -21.7 °F -2.0 °F 80% 29.86 in 3.0 mi NNW 29.9 mph 38.0 mph 0.00 in   Overcast
9:41 PM 1.9 °F -23.9 °F -2.9 °F 80% 29.86 in 2.0 mi NNW 32.2 mph 40.3 mph 0.00 in   Overcast
9:53 PM 1.9 °F -22.4 °F -2.9 °F 80% 30.10 in 2.5 mi NNW 27.6 mph 46.0 mph 0.00 in   Overcast
10:02 PM 1.9 °F -21.6 °F -2.9 °F 80% 29.86 in 4.0 mi NNW 25.3 mph 41.4 mph 0.00 in   Overcast
10:53 PM 1.9 °F -20.2 °F -2.9 °F 80% 30.11 in 8.0 mi NNW 21.9 mph 38.0 mph 0.00 in   Overcast
11:16 PM 1.9 °F -22.4 °F -2.9 °F 80% 29.86 in 6.0 mi NNW 27.6 mph 35.7 mph N/A   Haze
11:45 PM 1.9 °F -23.2 °F -2.9 °F 80% 29.87 in 2.5 mi NNW 29.9 mph 38.0 mph 0.00 in   Overcast
11:53 PM 1.9 °F -23.2 °F -2.9 °F 80% 30.11 in 2.0 mi NNW 29.9 mph 38.0 mph 0.00 in   Overcast